sat.trackr.live / text

‹ back to catalog

STARLINK-31244

NORAD 58856 · 2024-019D

PAYLOAD ACTIVE UNKNOWN

§ Identity

Operator
Country
US
Launch date
2024-01-29
Launch site
AFETR
Launch vehicle
Mass (kg)
RCS (m²)

Purposes: comms

External: N2YO · Heavens-Above · Gunter

§ Orbital elements

Epoch: 2026-09-20T06:47:06.468864Z

Period
94.27 min
Inclination
43.0014°
Eccentricity
0.0001059
Mean motion
15.27578330 rev/d
Perigee alt
482.3 km
Apogee alt
483.8 km
Semi-major
6,861.2 km
B*
3.9225e-5
RAAN
229.8990°
Arg perigee
273.7547°
Mean anomaly
86.3183°
Rev number
14,884

§ Raw data

STARLINK-312441 58856U 24019D   26263.28271376  .00000817  00000+0  39225-4 0  99932 58856  43.0014 229.8990 0001059 273.7547  86.3183 15.27578330148840

JSON: /api/v1/satellites/58856 · /tle

For live sub-satellite position, see the globe view (requires WebGL).

§ Visibility from observer

Set your observer location to see the next 7 days of passes ≥ 10°. The values pass through the URL so the page stays shareable.

No JS? Fill the form by hand. The geolocation button needs JavaScript.